Dewpoint
49 50 51 52 52 52 52 51 49 48 48 39 37 39 34 28 24 34 39 40 34 29 21 26 23 17 23 26 24 25 25 21 22 21 23 20 22 22 23 21 14 16 17 18 16 17 10 16 10 17 20 20 23 26 25 27 24 17 17 18 15 26 7 5 10 12 14 13 13 14 14 13 8 9 12 10 5 9 10 7 -1 3 0 -0 -2 1 7
49 50 51 52 52 52 52 51 49 48 48 37 40 37 29 30 28 26 35 39 37 26 14 18 11 17 23 23 23 24 25 23 21 23 24 20 15 21 22 18 21 15 22 18 14 18 6 15 16 15 18 14 26 25 25 24 23 18 16 12 18 9 10 9 2 5 11 10 11 11 13 9 8 7 10 11 7 5 2 2 -2 3 4 7 5 4 7
50 51 51 52 51 51 52 51 51 47 48 45 40 34 33 27 28 30 34 36 24 13 24 21 15 21 20 18 15 19 18 24 23 23 22 23 16 17 19 19 21 19 22 20 21 21 11 11 14 11 14 15 24 22 22 21 24 27 27 30 23 7 11 6 2 -1 2 3 4 7 7 10 8 10 10 9 8 6 4 3 -1 2 4 5 0 5 8
51 51 51 51 51 51 52 52 51 50 48 48 40 35 21 21 2 23 26 29 27 27 26 24 21 18 16 8 13 19 15 20 26 25 25 23 22 21 21 19 22 21 20 16 17 18 21 9 9 8 10 13 24 25 22 23 25 28 29 25 17 7 14 11 10 9 8 10 11 15 18 11 8 7 8 8 7 8 5 5 2 7 3 7 7 8 10
50 51 51 51 51 52 52 52 51 50 48 47 41 33 18 24 9 19 8 20 23 22 23 22 20 16 19 5 14 12 15 16 17 27 20 24 23 21 19 18 15 15 18 18 20 21 20 18 11 9 8 10 19 24 25 24 26 29 29 24 11 6 5 11 12 12 12 11 11 12 15 11 11 11 12 9 9 9 8 9 8 9 5 8 10 9 10
50 50 51 51 51 51 52 51 51 49 47 47 41 32 30 17 20 20 18 9 14 16 13 25 21 22 19 14 15 12 18 18 7 19 23 25 24 15 18 21 20 19 15 18 11 19 20 15 10 11 9 12 14 15 26 23 28 26 20 17 12 8 6 7 9 10 13 14 13 13 13 13 13 13 12 10 11 8 8 10 11 9 8 9 11 10 9
50 50 51 50 51 51 52 51 50 49 47 46 38 32 28 26 25 19 26 21 23 21 21 25 23 20 19 20 17 14 17 14 20 17 16 20 20 20 9 17 21 21 22 16 11 19 8 8 10 9 9 10 9 8 13 24 23 20 14 14 8 9 8 7 8 11 13 13 13 13 13 12 12 13 12 12 11 11 11 11 11 11 11 10 10 11 11
51 51 51 51 51 51 51 51 50 49 48 43 35 34 25 22 16 16 23 21 19 18 21 23 17 14 15 3 11 18 19 16 19 21 15 9 15 23 17 18 20 21 22 19 10 16 15 9 8 10 10 6 10 9 14 15 22 20 13 11 12 9 8 15 9 6 12 11 13 13 14 12 13 12 13 13 12 12 12 12 11 11 11 11 11 11 12
51 51 50 51 51 51 51 51 51 50 50 27 36 33 28 30 26 26 15 14 11 18 19 21 20 13 14 7 12 19 21 18 22 20 18 12 15 20 16 19 23 23 22 21 19 20 22 18 17 18 12 10 18 12 10 21 17 18 15 11 13 7 8 5 3 5 9 11 13 11 11 11 11 11 11 12 12 10 12 11 12 11 12 12 9 10 12
50 50 50 51 51 51 51 51 51 50 48 37 33 30 30 27 29 32 27 17 22 15 13 15 10 8 18 15 14 17 18 22 21 14 21 27 25 23 21 22 22 20 21 19 21 23 24 23 21 22 20 18 20 18 18 20 20 18 14 13 9 7 6 5 3 5 8 9 11 10 11 12 12 13 13 13 13 13 12 13 14 13 12 9 9 13 14
50 51 51 51 51 50 50 50 51 50 39 33 30 30 30 20 19 22 21 14 14 15 11 11 8 16 20 25 22 22 23 24 22 9 7 22 25 26 24 23 18 19 18 21 25 26 25 23 22 22 21 19 19 21 22 22 21 20 18 12 11 5 5 4 5 4 5 8 9 11 8 5 8 14 19 14 11 13 12 11 12 13 13 13 14 13 14
50 50 50 50 50 49 49 50 50 51 43 36 38 35 32 30 31 25 12 4 12 13 10 12 16 18 18 23 21 20 22 24 22 25 16 22 25 25 23 21 15 10 20 25 25 27 27 25 24 23 25 24 23 23 20 20 21 26 19 14 8 9 6 5 2 5 7 7 9 6 -0 7 14 14 17 17 14 13 12 12 13 13 14 14 14 14 15
50 50 50 50 50 49 49 49 50 51 48 40 40 32 34 32 27 24 21 14 7 14 10 13 15 22 23 24 23 23 24 22 24 27 24 23 22 24 25 22 17 20 27 25 25 24 19 16 19 22 23 21 22 22 21 22 22 21 19 16 15 8 7 3 8 2 5 4 1 -1 6 12 12 10 9 11 9 10 9 10 11 11 11 12 13 14 14
50 50 50 50 49 50 49 49 50 50 50 45 39 35 32 33 23 21 23 12 18 14 15 13 13 15 22 24 22 23 19 18 18 24 23 28 24 23 25 29 28 28 28 25 22 14 11 13 6 10 10 11 12 12 18 19 19 20 19 19 17 13 4 5 9 5 4 2 -0 9 9 7 9 11 9 8 9 8 8 6 12 12 12 12 12 13 14
48 49 49 49 49 49 49 49 50 51 50 45 36 32 31 31 33 30 30 12 9 14 13 4 15 18 22 24 21 16 15 16 15 14 25 26 26 25 27 28 27 26 25 21 14 17 8 8 4 5 8 5 2 4 21 20 18 15 17 18 16 15 9 11 7 7 5 5 7 6 3 -0 10 13 11 12 11 10 12 9 13 12 13 14 13 13 14
49 49 49 49 48 49 49 50 50 51 48 43 35 32 31 33 34 35 30 18 17 7 11 22 22 22 23 23 22 15 12 12 13 15 15 21 25 26 27 26 25 26 22 18 16 10 9 7 2 1 3 3 9 6 3 15 13 14 15 18 17 15 11 7 8 6 4 3 2 -1 0 7 12 12 11 10 12 11 13 7 10 16 15 15 14 14 14
49 49 49 49 49 49 50 51 51 49 45 41 32 31 30 35 36 33 27 23 10 9 21 25 27 24 22 19 20 17 18 10 18 6 6 13 23 27 25 25 25 25 23 12 13 11 9 8 5 3 7 11 6 3 8 12 9 10 15 16 14 12 6 6 8 5 5 1 3 4 1 8 11 12 10 10 14 14 12 8 10 16 15 15 14 14 13
49 49 49 49 49 48 48 48 48 47 46 46 34 32 32 33 32 35 30 19 11 16 27 28 27 17 16 20 20 22 20 19 21 21 21 24 24 24 23 25 21 23 26 12 11 8 8 7 6 5 7 14 11 7 4 7 5 4 11 13 11 11 10 7 11 4 8 11 5 1 9 12 16 15 14 11 13 11 5 8 13 13 13 14 14 14 14
48 48 49 48 48 47 46 46 47 47 46 40 35 34 30 33 34 34 29 24 15 12 29 26 28 27 26 23 28 25 22 19 21 11 15 10 16 24 25 23 22 10 20 10 10 7 8 6 12 5 6 9 8 4 9 4 6 10 12 8 8 6 3 6 4 7 7 6 6 9 9 13 16 12 11 12 10 8 10 12 13 13 13 14 15 15 15
48 48 48 47 47 47 46 46 46 45 45 46 36 29 29 31 32 34 30 22 20 23 26 29 29 28 29 32 27 20 20 20 22 19 14 8 20 23 16 11 20 19 15 15 10 12 8 8 9 8 6 5 12 9 5 7 11 9 9 8 6 10 7 5 4 7 8 5 3 5 4 9 11 11 10 11 8 11 12 13 14 15 15 15 15 15 16
48 48 47 47 48 48 46 45 46 45 46 45 39 30 26 30 31 31 32 27 25 18 22 28 28 29 30 28 28 29 27 17 20 16 21 20 25 16 3 6 19 14 11 10 8 7 8 7 6 6 13 8 9 7 6 4 9 14 9 7 8 12 6 3 6 10 5 3 4 6 14 15 14 11 12 13 13 13 14 14 13 15 16 15 15 16 16
47 48 48 48 47 47 46 47 46 46 47 44 38 27 24 26 29 31 31 31 27 22 20 27 28 27 29 30 30 30 31 30 30 28 23 19 25 18 17 22 22 15 15 16 10 8 10 9 8 6 6 8 12 10 8 7 8 11 11 10 11 14 10 12 10 10 8 9 14 14 16 17 16 12 13 13 14 15 15 15 15 15 16 17 16 16 17
48 47 47 47 46 47 47 46 45 43 47 45 39 29 25 26 28 33 28 27 28 30 31 30 31 32 33 32 33 31 29 32 32 31 27 24 19 21 17 19 18 23 23 19 17 14 14 12 11 11 10 10 11 8 7 11 6 7 9 10 12 16 15 15 10 15 15 16 16 18 14 13 14 15 16 15 15 16 17 16 16 17 17 18 17 17 17
46 47 47 47 47 46 46 46 46 45 45 44 40 28 27 29 31 30 29 28 24 22 26 29 30 19 24 25 29 31 31 31 31 32 31 30 18 16 20 23 26 21 21 24 24 14 14 13 12 9 6 14 6 7 5 8 6 12 7 13 10 16 13 11 10 15 10 8 11 12 11 13 14 14 16 17 17 17 17 17 18 18 18 18 18 18 18
45 45 45 46 46 46 46 46 46 43 43 42 38 37 34 31 32 30 23 20 17 20 8 14 20 26 30 30 30 31 32 33 33 32 32 31 29 23 20 25 27 23 19 22 20 16 13 10 10 9 6 16 10 12 15 7 12 13 9 14 11 14 11 10 10 10 9 9 12 13 13 14 16 17 17 16 17 18 18 19 19 19 19 19 19 19 19
45 44 44 44 45 45 45 46 46 46 46 46 41 30 30 29 32 31 34 30 26 22 15 12 20 30 31 30 29 30 32 33 31 32 32 31 31 29 27 27 26 26 25 23 18 14 14 13 11 10 8 16 13 8 8 11 12 14 11 16 14 12 12 11 11 10 11 13 14 15 15 15 16 16 17 18 18 18 18 19 19 19 19 20 20 21 21
45 45 45 45 45 45 44 44 44 43 42 40 35 33 33 31 33 34 34 33 21 13 22 12 14 25 28 26 30 33 32 32 31 31 32 31 31 31 29 26 27 23 18 15 17 13 13 12 11 14 10 16 10 9 10 12 14 10 9 14 15 12 13 14 14 14 14 13 13 14 14 14 15 16 17 18 19 19 18 19 19 20 20 20 21 21 22
45 44 44 45 44 44 43 43 43 42 41 39 36 34 31 32 32 32 33 32 25 9 12 13 12 20 26 28 31 31 31 30 30 31 30 30 31 29 28 26 25 19 17 14 13 13 11 11 16 12 9 10 10 13 11 10 9 8 10 13 14 11 12 13 14 11 13 14 15 16 16 16 17 17 18 19 19 19 19 20 20 21 21 21 22 22 23
45 45 44 44 44 44 44 44 43 45 44 40 35 34 31 33 33 35 35 32 29 26 25 22 24 19 14 25 27 28 29 29 30 29 29 28 29 28 27 26 25 20 16 14 13 11 10 12 16 13 12 17 11 10 8 9 8 8 11 14 15 15 14 15 15 16 15 16 17 18 17 17 17 18 19 19 20 20 21 21 21 22 22 23 23 23 23
45 45 45 45 44 43 44 42 44 43 43 34 32 27 25 23 32 32 35 32 28 27 24 16 9 9 26 29 30 28 28 29 28 28 28 27 25 25 26 26 23 27 18 16 14 13 17 15 16 18 19 19 11 9 8 8 7 12 16 17 18 18 17 19 19 17 16 18 19 19 19 19 19 19 20 21 22 23 22 22 22 23 23 24 24 24 24
44 44 44 45 45 45 45 46 44 43 41 32 26 17 19 11 16 36 38 33 32 29 22 23 14 16 17 25 27 27 27 26 26 25 25 25 25 24 22 23 21 24 17 17 14 17 17 12 14 17 19 24 17 9 8 8 8 9 13 15 16 17 17 18 19 20 20 20 19 19 19 20 21 21 21 21 22 22 22 23 23 25 24 25 24 24 24
45 44 44 44 44 44 44 44 43 41 34 31 20 15 15 12 21 33 37 38 32 26 22 16 11 11 13 22 24 26 26 26 27 26 24 26 19 23 21 23 18 23 28 16 17 15 13 19 14 13 13 22 19 7 7 7 9 13 14 15 17 18 19 19 19 19 19 20 20 22 20 20 21 20 20 22 23 23 23 23 23 24 25 25 25 25 24
46 45 45 45 44 44 44 43 42 35 26 34 42 43 42 42 40 38 39 34 24 19 21 21 8 9 15 14 20 24 27 23 20 18 15 23 20 21 16 22 21 21 32 22 14 13 17 18 17 14 18 17 14 12 6 8 12 15 16 18 18 18 18 19 19 19 19 21 21 20 20 20 21 22 23 23 23 23 23 24 24 24 24 24 24 24 24
46 46 44 45 44 45 45 44 43 40 37 27 15 18 24 40 35 42 32 27 18 18 21 16 10 12 12 15 11 16 23 16 14 18 12 22 20 16 14 18 20 16 20 17 20 17 16 17 12 13 14 12 14 9 9 14 16 17 17 17 18 18 19 19 19 19 21 22 22 22 22 23 23 23 23 23 23 23 24 24 24 24 24 23 23 23 24
46 45 46 45 44 45 45 41 34 32 19 30 30 30 28 41 40 40 34 23 14 16 15 14 20 16 17 17 14 19 22 17 13 16 12 15 19 13 17 12 15 12 14 20 17 16 12 14 18 11 12 9 10 11 12 15 15 15 16 17 17 19 19 19 19 21 22 22 23 23 23 23 23 23 23 23 23 23 23 24 24 24 23 23 23 24 24
45 46 45 43 44 42 34 34 29 22 17 17 18 34 38 40 40 32 34 31 18 15 16 12 19 12 11 10 11 14 21 16 16 13 13 14 16 17 16 11 11 14 18 15 11 13 11 17 14 10 9 9 10 13 14 15 15 16 17 17 18 19 19 20 20 21 22 23 23 23 22 23 23 23 23 23 23 23 24 23 23 24 23 23 23 24 24
44 44 44 40 33 24 19 16 27 23 17 19 29 40 40 38 32 31 29 26 25 25 20 16 21 10 14 10 14 19 18 15 17 12 11 11 11 13 11 11 11 20 14 11 10 11 15 19 11 10 11 9 11 16 17 17 17 17 17 18 19 20 21 22 22 23 22 23 22 22 22 22 22 23 23 23 23 24 23 23 23 23 23 23 24 24 24
44 40 30 25 19 18 15 17 16 20 36 34 34 25 22 27 16 21 25 22 17 30 20 20 12 11 16 14 12 19 16 15 15 12 12 9 16 11 12 12 14 18 8 10 13 19 10 8 9 8 9 15 17 17 17 18 19 19 19 19 21 22 22 22 22 22 22 22 21 22 22 22 22 23 23 23 24 24 23 23 23 23 23 24 24 25 25
37 29 25 23 16 13 16 16 29 37 30 31 27 16 13 20 16 14 13 16 17 18 15 20 11 17 13 11 16 24 18 12 13 9 11 15 13 13 10 8 11 11 5 6 9 12 5 6 6 4 8 13 15 14 16 18 18 19 20 22 22 22 22 22 23 23 23 23 23 23 23 22 22 23 24 24 24 25 24 23 23 23 23 24 24 25 25
21 14 13 19 12 15 30 32 39 28 28 12 19 16 11 17 18 10 16 12 13 13 15 14 14 17 15 12 11 14 24 15 10 12 12 15 22 9 10 11 11 6 3 5 8 7 5 3 5 3 7 13 14 16 18 18 18 19 21 22 22 22 22 22 23 24 24 24 24 23 24 24 24 24 25 25 25 24 23 23 22 23 23 23 24 25 25
26 22 18 13 21 26 29 30 25 24 18 14 14 13 12 11 13 11 15 13 12 12 14 12 12 13 15 13 13 12 21 18 12 10 9 11 16 18 9 7 10 5 3 4 9 5 4 2 3 4 9 14 15 16 17 15 15 19 20 21 21 22 22 23 23 24 24 24 24 24 24 25 25 25 26 26 25 24 23 22 22 22 23 23 24 24 25
26 17 16 27 29 31 23 20 22 16 14 17 11 9 11 10 14 16 14 10 11 13 14 13 10 11 15 15 14 13 11 11 13 12 10 9 18 10 7 6 5 3 3 5 5 4 3 2 2 5 15 15 14 15 14 13 16 18 19 21 21 22 22 23 23 24 25 25 25 25 25 26 27 27 27 26 25 24 23 22 21 21 22 23 24 25 24
39 33 29 21 21 19 21 17 19 15 10 10 6 6 9 8 10 11 11 15 13 11 13 14 13 21 18 15 11 13 12 24 18 12 10 9 20 12 3 2 2 4 4 5 3 1 1 1 2 11 15 14 14 14 13 15 18 19 20 21 22 22 23 23 24 25 26 26 26 26 27 27 28 28 28 26 24 21 20 20 20 21 22 21 22 24 23
28 25 16 21 17 16 17 8 16 11 8 9 8 8 9 10 17 14 12 15 13 10 14 13 16 14 15 14 10 12 15 17 25 10 9 9 6 4 3 5 4 5 7 3 1 2 3 1 7 14 15 13 14 13 15 17 19 20 21 21 22 23 23 25 26 26 26 26 26 27 27 28 28 28 27 24 22 20 19 20 21 22 22 21 23 24 22
17 19 18 12 10 13 10 5 13 10 8 8 19 13 11 12 16 12 14 17 11 13 15 12 14 11 13 14 10 13 18 11 17 9 6 6 4 4 4 5 4 2 2 2 -0 -1 3 9 16 15 13 12 13 15 17 19 20 20 21 22 23 23 25 26 25 25 25 25 25 26 26 27 28 27 25 23 22 21 20 20 21 21 21 22 23 22 21
22 13 13 8 7 11 10 7 9 7 14 16 14 15 14 18 15 16 17 12 12 15 16 15 11 12 11 11 10 10 7 8 8 6 7 4 3 4 5 6 2 1 -1 -3 -1 4 8 15 15 13 13 14 15 18 19 20 21 22 23 22 23 26 27 25 24 24 24 24 24 25 26 28 27 26 23 22 22 21 21 21 21 20 20 23 22 21 20
18 17 16 10 8 10 14 10 11 15 12 17 16 16 15 15 14 17 13 12 12 14 12 11 12 11 9 10 10 9 7 6 6 7 5 4 4 5 7 3 2 -0 1 2 6 11 13 15 13 14 15 17 19 20 21 21 22 23 23 25 27 26 24 22 22 23 23 24 24 25 26 27 26 24 23 21 20 20 21 20 19 20 22 23 21 17 16
13 16 15 8 7 12 14 14 14 16 14 15 15 13 12 11 15 15 14 12 14 15 12 12 12 11 10 11 9 8 7 6 5 6 6 4 5 2 -0 -0 -0 -0 3 8 11 13 14 13 15 16 18 20 21 22 22 23 24 25 26 26 25 22 20 20 21 22 23 23 23 25 27 26 24 23 21 20 19 20 20 19 20 21 23 21 16 16 15
22 13 12 11 12 15 16 18 18 17 17 15 10 12 13 15 14 15 14 10 13 12 13 11 10 10 8 9 6 6 6 7 5 5 4 1 2 2 2 3 1 6 7 12 14 14 14 16 19 21 21 22 23 23 23 24 25 25 26 24 20 18 19 20 22 22 21 22 24 26 26 24 23 21 20 19 18 18 18 20 21 22 20 16 15 13 12
16 15 20 18 18 18 15 15 19 16 17 18 15 15 12 12 14 15 13 13 10 11 12 13 16 11 9 7 5 3 5 5 5 5 3 2 4 1 3 4 6 9 13 15 15 15 18 19 21 21 23 23 25 25 25 24 24 25 24 21 19 19 20 22 22 20 21 23 25 25 23 22 21 19 18 18 18 19 20 20 22 20 16 15 13 11 10
17 18 15 17 17 16 16 15 15 15 18 17 15 13 13 13 13 14 11 12 12 10 9 10 9 8 7 5 4 5 7 6 4 4 4 5 5 4 8 8 11 14 14 16 18 20 20 21 22 23 24 25 25 26 25 23 22 23 21 20 20 21 22 21 21 21 22 24 24 22 21 20 19 19 18 20 20 20 20 20 17 15 14 12 11 9 9
14 16 16 16 14 15 16 17 17 16 16 16 14 12 16 11 12 14 12 12 10 11 9 9 7 7 4 7 8 7 6 4 3 3 7 8 5 6 8 12 15 17 18 19 20 21 22 23 24 25 25 25 26 25 22 20 20 20 18 20 21 21 21 21 20 22 23 23 22 20 19 18 19 20 20 20 19 19 15 12 13 12 11 10 9 9 8